Regional Weather Roundup
Issued by NWS

Home | Current Version | Previous Version | Text Only | Print | Product List | Glossary On
Versions: 1 2 3 4 5 6 7 8 9 10 11 12 13 14 15 16 17 18 19 20 21 22 23 24 25 26 27 28 29 30 31 32 33 34 35 36 37 38 39 40 41 42 43 44 45 46 47 48 49 50
000
ASUS43 KFSD 182210
RWRSD

WEATHER ROUNDUP FOR SOUTH DAKOTA
NATIONAL WEATHER SERVICE SIOUX FALLS SD
400 PM CST THU DEC 18 2014

NOTE: "FAIR" INDICATES FEW OR NO CLOUDS BELOW 12,000 FEET WITH NO
SIGNIFICANT WEATHER AND/OR OBSTRUCTIONS TO VISIBILITY.


SDZ001>005-009-010-012>017-182300-
NORTHWEST AND NORTH CENTRAL SOUTH DAKOTA

CITY           SKY/WX    TMP DP  RH WIND       PRES   REMARKS
BUFFALO          N/A     42  28  57 W12       29.88R
FAITH            N/A     29  24  82 S13       29.98S WCI  19
MOBRIDGE       CLOUDY    29  26  89 S8        30.01S WCI  21
$$

SDZ012>016-024>037-041>051-057-063-072>074-182300-
SOUTHWEST AND SOUTH CENTRAL SOUTH DAKOTA

CITY           SKY/WX    TMP DP  RH WIND       PRES   REMARKS
RAPID CTY ARPT CLEAR     43  29  57 E6        29.97R
PIERRE         CLOUDY    29  24  82 S10       30.06R WCI  20
CUSTER         SUNNY     36  18  48 W9        29.94S
ELLSWORTH AFB  CLEAR     43  28  56 NE6       29.97R
PHILIP         CLEAR     31  23  72 S8        30.03S WCI  23
PINE RIDGE     SUNNY     37  24  59 W7        30.01S
SPEARFISH      FAIR      39  23  52 W10G18    29.97R
WINNER         CLOUDY    31  24  75 SW5       30.07S WCI  26
$$

SDZ004>011-016>023-039-040-182300-
NORTHEAST SOUTH DAKOTA

CITY           SKY/WX    TMP DP  RH WIND       PRES   REMARKS
ABERDEEN       CLOUDY    25  22  88 S7        30.13S FOG     WCI  17
WATERTOWN      CLOUDY    24  20  84 S9        30.13R WCI  14
SISSETON         N/A     19  17  92 S9        30.17S WCI   8
$$

SDZ017-020-022-023-036>040-048>070-182300-
SOUTHEAST SOUTH DAKOTA

CITY           SKY/WX    TMP DP  RH WIND       PRES   REMARKS
SIOUX FALLS    CLOUDY    26  22  84 S7        30.17S WCI  18
HURON          CLOUDY    26  21  81 S9        30.14S WCI  17
CHAMBERLAIN    CLOUDY    28  25  89 SE6       30.10S WCI  21
MITCHELL       CLOUDY    28  23  81 S9        30.16S WCI  19
YANKTON        MOCLDY    28  21  74 S5        30.19R WCI  23
$$

ABBREVIATIONS USED IN REMARKS
   TC - TEMPERATURE IN CELSIUS
  WCI - WIND CHILL INDEX
   HX - HEAT INDEX
  VSB - VISIBILITY



USA.gov is the U.S. government's official web portal to all federal, state and local government web resources and services.